Flag for Australia Weather past 2 weeks in Ballarat, Victoria, Australia

Now
41 °F

Quite cool.


Feels Like: 37 °F
Forecast: 36 / 50 °F
Wind: 6 mph from North

Location: Sheoaks Aws

Current Time: Jul 8, 2015 at 8:40:29 AM

Latest Report: Jul 8, 2015 at 6:00 AM


Visibility: N/A

Pressure: 30.28 "Hg

Humidity: 98%

Dew point: 40 °F

Location of BallaratLocation

Historic Weather in Ballarat — Graph

°F

Ballarat temperature yesterday

Maximum temperature yesterday: 52 °F (at 12:00 PM)
Minimum temperature yesterday: 44 °F (at 6:00 AM)
Average temperature yesterday: 47 °F

Past Weeks' High & Low Weather Summary

 TemperatureHumidityPressure
High59 °F (Jun 23, 12:00 PM)98% (Jun 29, 2:00 AM)30.55 "Hg (Jun 29, 2:00 AM)
Low36 °F (Jul 3, 3:00 AM)52% (Jun 23, 3:00 PM)29.96 "Hg (Jul 6, 2:00 PM)
Average48 °F77%30.28 "Hg
* Reported Jun 23 6:00 AM — Jul 8 6:00 AM, Ballarat, Weather by CustomWeather, © 2015

Note: Actual official high and low records may vary slightly from our data, if they occured in-between our weather recording intervals... More about our weather records

Advertising

Ballarat weather history for previous 24 hours

 ConditionsComfort  
Time TempWeatherWind HumidityBarometerVisibility
6:00 AM
Wed, Jul 8
41 °FQuite cool.6 mph98%30.28 "HgN/A
5:00 AM41 °FQuite cool.3 mph98%30.28 "HgN/A
3:00 AM45 °FCool.No wind98%30.28 "HgN/A
2:00 AM45 °FQuite cool.No wind97%30.28 "HgN/A
12:00 AM45 °FQuite cool.No wind97%30.28 "HgN/A
11:00 PM
Tue, Jul 7
45 °FQuite cool.2 mph96%30.28 "HgN/A
9:00 PM46 °FCool.2 mph91%30.27 "HgN/A
8:00 PM46 °FCool.3 mph90%30.27 "HgN/A
6:00 PM49 °FCool.5 mph88%30.24 "HgN/A
5:00 PM50 °FCool.6 mph86%30.22 "HgN/A
3:00 PM52 °FCool.5 mph80%30.20 "HgN/A
2:00 PM52 °FCool.5 mph80%30.19 "HgN/A
12:00 PM52 °FCool.No wind76%30.21 "HgN/A
11:00 AM50 °FCool.2 mph82%30.22 "HgN/A
9:00 AM46 °FCool.3 mph88%30.19 "HgN/A
8:00 AM45 °FQuite cool.5 mph88%30.17 "HgN/A
Weather by CustomWeather, © 2015

See weather overviewHow to use our weather pages